Regional Weather Roundup
Issued by NWS Newport/Morehead, NC

Current Version | Previous Version | Text Only | Print | Product List | Glossary On
Versions: 1 2 3 4 5 6 7 8 9 10 11 12 13 14 15 16 17 18 19 20 21 22 23 24 25 26 27 28 29 30 31 32 33 34 35 36 37 38 39 40 41 42 43 44 45 46 47 48 49 50
000
ASUS42 KMHX 060124
RWRMHX
WEATHER ROUNDUP FOR EASTERN NORTH CAROLINA
NATIONAL WEATHER SERVICE NEWPORT/MOREHEAD CITY NC
900 PM EDT TUE MAY 05 2015

NOTE: "FAIR" INDICATES FEW OR NO CLOUDS BELOW 12,000 FEET
WITH NO SIGNIFICANT WEATHER AND/OR OBSTRUCTIONS TO VISIBILITY

NCZ015>017-031-032-045>047-102-103-060200-
NORTH COAST

CITY           SKY/WX    TMP DP  RH WIND       PRES   REMARKS
EDENTON        MOCLDY    67  54  63 S8        30.29R
ELIZABETH CITY MOCLDY    68  52  56 S10       30.28R
KITTY HAWK     MOCLDY    68  54  61 S6        30.28S
MANTEO         MOCLDY    67  59  76 S9        30.30R

$$

NCZ045>047-081-094-103-104-060200-
CENTRAL COAST

CITY           SKY/WX    TMP DP  RH WIND       PRES   REMARKS
FRISCO         PTCLDY    66  56  70 S7        30.30F
SWANQUARTER      N/A     68 N/A N/A SE5G10    30.27S

$$

NCZ095-097-098-100-101-060200-
SOUTHERN COAST

CITY           SKY/WX    TMP DP  RH WIND       PRES   REMARKS
BEAUFORT       PTCLDY    66  58  75 SE3       30.29S
CEDAR ISLAND     N/A     68 N/A N/A SE3       30.33S
JACKSONVILLE   MOCLDY    64  56  75 SE6       30.28S
PINEY ISLAND   PTCLDY   N/A N/A N/A CALM      30.29S
WILMINGTON     MOCLDY    64  56  75 N3        30.28S


$$

NCZ011>013-027>030-043-044-078>080-089-090>093-098-060200-
COASTAL PLAIN

CITY           SKY/WX    TMP DP  RH WIND       PRES   REMARKS
AHOSKIE        CLEAR     67  53  59 SE3       30.27R
CLINTON        MOCLDY    68  55  62 SE3       30.28S
ELIZABETHTOWN  MOCLDY    66  53  62 CALM      30.28R
GOLDSBORO      PTCLDY    69  51  51 SE1       30.26R
GREENVILLE     MOCLDY    70  50  49 S9        30.29R
HAVELOCK       MOCLDY    65  52  62 CALM      30.30S
KENANSVILLE    MOCLDY    65  52  63 CALM      30.30R
KINSTON        MOCLDY    68  52  56 S6        30.29R
NEW BERN       MOCLDY    62  52  69 CALM      30.30S
RICHLANDS      MOCLDY    61  52  72 CALM      30.29S
ROCKY MOUNT    CLEAR     70  49  47 S7        30.26R
WASHINGTON     MOCLDY    67  52  57 S3        30.29S
WHITEVILLE     MOCLDY    65  56  72 CALM      30.27S

$$

AMZ130-135-150-152-154-156-158-170-250-252-270-ANZ085-086-088-633-658-670-060200-
MARINE OBSERVATIONS

STATION/POSITION TIME  TEMP    WIND        PRES    WAVE   SWELL
                       AIR SEA DIR/SP/G            HT/PER HT/PER
                 (UTC) (F)     (DEG/KT/KT) (MB)    (FT/S) (FT/S)
CHESAPEAKE LIGHT 0100   66     190/ 21/ 21 1025.0
64 E VA BEACH    0050   63 61  210/ 10/ 12 1025.2    2/11   2/11
DUCK             0100   69 53  180/ 11/ 14 1024.7
2 E DUCK         0011      57                N/A     2/11   2/11
OREGON INLET     0100   69 73  180/ 11/ 12 1025.9
13E OREGON INLT  0100      61                N/A     2/12   2/12
HATTERAS CG      0012   70 69  160/  8/ 10 1025.6
DIAMOND BUOY     0050   71 76  160/ 14/ 17 1025.9    3/11   2/11
CAPE LOOKOUT     0100   68     150/  5/  5 1025.6
BEAUFORT LAB     0100          160/  4/  6 1024.9
27 SE WRIGHTSVLE 0100   68 71  150/ 10/ 12   N/A
5 SE WRIGHTSVLE  NOT AVBL
225 S CAPE HAT   0050   70 70  100/ 17/ 21 1024.9    6/ 7   2/ 9
41 SE CHARLESTON 0050   73 74   80/ 14/ 17 1023.1    4/ 7   3/ 7

$$



USA.gov is the U.S. government's official web portal to all federal, state and local government web resources and services.